Location: Leo
(52.0556°N, 112.3605°W)
Time: 07:27:39
(UTC+00:00)

FO-29 - Pass Details

Date: 06 December 2023
Orbit: 799 x 1322 km, 98.6° (Epoch: 04 March)

Event Time Altitude Azimuth Distance (km) Brightness Sun altitude
Rises 11:45:57 0° 13° (NNE) 4,111 13.0 -31.9°
Reaches altitude 10° 11:48:37 10° 7° (N) 3,201 12.3 -31.5°
Enters shadow 11:53:10 36° 341° (NNW) 1,918 10.8 -30.8°
